When you browse on this site, cookies collect data to enhance your experience and personalize the content and advertising you see.
Visit our Privacy Policy to learn more. By continuing to use the site, you agree to this use of cookies and data.
  • In Austria
  • List of Countries
  • For 7 days
  • Water Temperature
  • Satellite Maps
  • Weather Map
  • News
  • Weather Widgets
  • user-avatar
    Login

    Hourly Weather San Luis

    Today, 24 March, Sunday

    Time Temperature Precipitation Wind Pressure Humidity
    00:00 +20°C° 0 mm 3 mps 700 mmHg 48%
    01:00 +19°C° 0 mm 4 mps 700 mmHg 47%
    02:00 +19°C° 0 mm 4 mps 701 mmHg 48%
    03:00 +17°C° 0 mm 5 mps 701 mmHg 45%
    04:00 +16°C° 0 mm 6 mps 701 mmHg 42%
    05:00 +16°C° 0 mm 6 mps 702 mmHg 39%
    06:00 +16°C° 0 mm 7 mps 702 mmHg 40%
    07:00 +16°C° 0 mm 7 mps 703 mmHg 40%
    08:00 +17°C° 0 mm 7 mps 703 mmHg 41%
    09:00 +20°C° 0 mm 7 mps 704 mmHg 36%
    10:00 +22°C° 0 mm 7 mps 704 mmHg 31%
    11:00 +24°C° 0 mm 6 mps 704 mmHg 27%
    12:00 +26°C° 0 mm 6 mps 704 mmHg 26%
    13:00 +27°C° 0 mm 6 mps 703 mmHg 25%
    14:00 +28°C° 0 mm 6 mps 703 mmHg 24%
    15:00 +27°C° 0 mm 6 mps 702 mmHg 25%
    16:00 +26°C° 0 mm 7 mps 701 mmHg 27%
    17:00 +26°C° 0 mm 7 mps 701 mmHg 28%
    18:00 +23°C° 0 mm 7 mps 700 mmHg 31%
    19:00 +21°C° 0 mm 7 mps 700 mmHg 35%
    20:00 +18°C° 0 mm 7 mps 700 mmHg 38%
    21:00 +19°C° 0 mm 6 mps 700 mmHg 38%
    22:00 +19°C° 0 mm 6 mps 701 mmHg 39%
    23:00 +17°C° 0 mm 6 mps 701 mmHg 40%

    Tomorrow, 25 March, Monday

    Time Temperature Precipitation Wind Pressure Humidity
    00:00 +17°C° 0 mm 6 mps 701 mmHg 40%
    01:00 +17°C° 0 mm 5 mps 701 mmHg 40%
    02:00 +17°C° 0 mm 5 mps 701 mmHg 41%
    03:00 +17°C° 0 mm 5 mps 701 mmHg 45%
    04:00 +16°C° 0 mm 5 mps 700 mmHg 48%
    05:00 +15°C° 0 mm 5 mps 700 mmHg 52%
    06:00 +17°C° 0 mm 4 mps 701 mmHg 53%
    07:00 +18°C° 0 mm 4 mps 701 mmHg 54%
    08:00 +19°C° 0 mm 4 mps 702 mmHg 55%
    09:00 +19°C° 0.2 mm 3 mps 702 mmHg 58%
    10:00 +20°C° 0.2 mm 3 mps 702 mmHg 60%
    11:00 +20°C° 0.2 mm 3 mps 702 mmHg 62%
    12:00 +20°C° 0 mm 2 mps 702 mmHg 61%
    13:00 +21°C° 0 mm 2 mps 701 mmHg 59%
    14:00 +21°C° 0 mm 2 mps 701 mmHg 58%
    15:00 +23°C° 0 mm 2 mps 701 mmHg 57%
    16:00 +22°C° 0 mm 3 mps 700 mmHg 56%
    17:00 +22°C° 0 mm 4 mps 700 mmHg 55%
    18:00 +21°C° 0 mm 4 mps 700 mmHg 63%
    19:00 +19°C° 0 mm 4 mps 701 mmHg 70%
    20:00 +16°C° 0 mm 5 mps 701 mmHg 78%
    21:00 +17°C° 0 mm 4 mps 702 mmHg 76%
    22:00 +17°C° 0 mm 4 mps 702 mmHg 75%
    23:00 +17°C° 0 mm 4 mps 703 mmHg 73%

    Day after tomorrow, 26 March, Tuesday

    Time Temperature Precipitation Wind Pressure Humidity
    00:00 +15°C° 0 mm 4 mps 703 mmHg 74%
    01:00 +16°C° 0 mm 3 mps 703 mmHg 75%
    02:00 +14°C° 0 mm 3 mps 702 mmHg 77%
    03:00 +14°C° 0 mm 3 mps 702 mmHg 77%
    04:00 +14°C° 0 mm 3 mps 702 mmHg 77%
    05:00 +14°C° 0 mm 4 mps 702 mmHg 77%
    06:00 +14°C° 0 mm 4 mps 703 mmHg 73%
    07:00 +15°C° 0 mm 4 mps 703 mmHg 70%
    08:00 +17°C° 0 mm 4 mps 704 mmHg 66%
    09:00 +19°C° 0 mm 3 mps 704 mmHg 62%
    10:00 +20°C° 0 mm 2 mps 705 mmHg 57%
    11:00 +23°C° 0 mm 2 mps 705 mmHg 52%
    12:00 +23°C° 0.3 mm 2 mps 705 mmHg 54%
    13:00 +21°C° 0.3 mm 2 mps 704 mmHg 55%
    14:00 +21°C° 0.3 mm 2 mps 704 mmHg 57%
    15:00 +21°C° 0.2 mm 2 mps 704 mmHg 57%
    16:00 +21°C° 0.2 mm 3 mps 703 mmHg 58%
    17:00 +21°C° 0.2 mm 3 mps 703 mmHg 58%
    18:00 +20°C° 0.1 mm 3 mps 703 mmHg 59%
    19:00 +18°C° 0.1 mm 4 mps 703 mmHg 60%
    20:00 +17°C° 0.1 mm 4 mps 704 mmHg 61%
    21:00 +17°C° 0 mm 4 mps 704 mmHg 64%
    22:00 +17°C° 0 mm 4 mps 704 mmHg 67%
    23:00 +16°C° 0 mm 3 mps 705 mmHg 70%

    27 March, Wednesday

    Time Temperature Precipitation Wind Pressure Humidity
    00:00 +16°C° 0 mm 3 mps 704 mmHg 72%
    01:00 +14°C° 0 mm 3 mps 704 mmHg 73%
    02:00 +14°C° 0 mm 3 mps 704 mmHg 75%
    03:00 +14°C° 0 mm 3 mps 703 mmHg 75%
    04:00 +14°C° 0 mm 3 mps 703 mmHg 74%
    05:00 +13°C° 0 mm 3 mps 703 mmHg 73%
    06:00 +14°C° 0 mm 3 mps 703 mmHg 69%
    07:00 +16°C° 0 mm 3 mps 704 mmHg 65%
    08:00 +17°C° 0 mm 3 mps 704 mmHg 61%
    09:00 +19°C° 0 mm 3 mps 705 mmHg 54%
    10:00 +21°C° 0 mm 3 mps 705 mmHg 47%
    11:00 +24°C° 0 mm 3 mps 705 mmHg 41%
    12:00 +23°C° 0 mm 4 mps 705 mmHg 41%
    13:00 +23°C° 0 mm 4 mps 704 mmHg 41%
    14:00 +25°C° 0 mm 4 mps 703 mmHg 42%
    15:00 +25°C° 0 mm 4 mps 703 mmHg 42%
    16:00 +25°C° 0 mm 4 mps 703 mmHg 43%
    17:00 +25°C° 0 mm 3 mps 702 mmHg 44%
    18:00 +22°C° 0 mm 3 mps 703 mmHg 49%
    19:00 +20°C° 0 mm 4 mps 703 mmHg 54%
    20:00 +19°C° 0 mm 4 mps 703 mmHg 58%
    21:00 +18°C° 0 mm 4 mps 703 mmHg 60%
    22:00 +18°C° 0 mm 4 mps 703 mmHg 62%
    23:00 +17°C° 0 mm 4 mps 703 mmHg 64%

    28 March, Thursday

    Time Temperature Precipitation Wind Pressure Humidity
    00:00 +16°C° 0 mm 5 mps 703 mmHg 65%
    01:00 +16°C° 0 mm 5 mps 702 mmHg 66%
    02:00 +15°C° 0 mm 5 mps 702 mmHg 67%
    03:00 +15°C° 0 mm 5 mps 702 mmHg 68%
    04:00 +15°C° 0 mm 5 mps 702 mmHg 68%
    05:00 +15°C° 0 mm 5 mps 702 mmHg 68%
    06:00 +16°C° 0 mm 6 mps 702 mmHg 64%
    07:00 +17°C° 0 mm 6 mps 703 mmHg 60%
    08:00 +18°C° 0 mm 7 mps 703 mmHg 57%
    09:00 +21°C° 0 mm 7 mps 703 mmHg 51%
    10:00 +23°C° 0 mm 7 mps 704 mmHg 45%
    11:00 +26°C° 0 mm 8 mps 704 mmHg 40%
    12:00 +26°C° 0 mm 7 mps 703 mmHg 38%
    13:00 +27°C° 0 mm 6 mps 703 mmHg 35%
    14:00 +28°C° 0 mm 6 mps 702 mmHg 33%
    15:00 +28°C° 0 mm 5 mps 702 mmHg 33%
    16:00 +28°C° 0 mm 4 mps 702 mmHg 34%
    17:00 +28°C° 0 mm 4 mps 701 mmHg 34%
    18:00 +26°C° 0 mm 4 mps 701 mmHg 40%
    19:00 +22°C° 0 mm 4 mps 701 mmHg 47%
    20:00 +20°C° 0 mm 3 mps 701 mmHg 53%
    21:00 +20°C° 0 mm 4 mps 701 mmHg 54%
    22:00 +20°C° 0 mm 4 mps 701 mmHg 56%
    23:00 +20°C° 0 mm 5 mps 702 mmHg 57%

    29 March, Friday

    Time Temperature Precipitation Wind Pressure Humidity
    00:00 +20°C° 0 mm 6 mps 701 mmHg 57%
    01:00 +20°C° 0 mm 7 mps 701 mmHg 58%
    02:00 +20°C° 0 mm 7 mps 701 mmHg 59%
    03:00 +18°C° 0 mm 7 mps 700 mmHg 60%
    04:00 +18°C° 0 mm 7 mps 700 mmHg 61%
    05:00 +19°C° 0 mm 6 mps 700 mmHg 61%
    06:00 +20°C° 0 mm 7 mps 700 mmHg 58%
    07:00 +21°C° 0 mm 7 mps 701 mmHg 55%
    08:00 +22°C° 0 mm 8 mps 701 mmHg 52%
    09:00 +24°C° 0 mm 7 mps 701 mmHg 47%
    10:00 +27°C° 0 mm 7 mps 701 mmHg 41%
    11:00 +28°C° 0 mm 7 mps 701 mmHg 36%
    12:00 +29°C° 0 mm 7 mps 700 mmHg 33%
    13:00 +30°C° 0 mm 6 mps 699 mmHg 31%
    14:00 +32°C° 0 mm 6 mps 698 mmHg 29%
    15:00 +32°C° 0 mm 6 mps 698 mmHg 30%
    16:00 +30°C° 0 mm 6 mps 697 mmHg 30%
    17:00 +30°C° 0 mm 6 mps 696 mmHg 31%
    18:00 +28°C° 0 mm 5 mps 696 mmHg 38%
    19:00 +25°C° 0 mm 4 mps 696 mmHg 45%
    20:00 +22°C° 0 mm 4 mps 696 mmHg 51%
    21:00 +22°C° 0 mm 5 mps 696 mmHg 51%
    22:00 +23°C° 0 mm 6 mps 696 mmHg 51%
    23:00 +23°C° 0 mm 7 mps 697 mmHg 51%
    Show more